Date String (YYYY-MM-DD hh:mm:ss) UTC,Instrument flags,Ambient pressure (hPa),Sample flow (lpm),Bypass flow (lpm),Sample temperature (°C),Ambient temperature (°C),ASC tube jacket temperature (°C),LED temperature (°C),Box temperature (°C),Sample RH (%),Span deviation,Mass concentration (μg/m³),Mass concentration (μg/m³),Mass concentration (μg/m³)
DateTimeUTC,F1_M11,P_M11,Q1_M11,Q2_M11,T1_M11,T2_M11,T3_M11,T4_M11,T5_M11,U1_M11,ZSPAN_M11,X0_M11,X2_M11,X1_M11
2021-10-20 08:00:00,,0828.9,5.00,0.00,24.9,24.2,00.0,33.9,26.7,18.6,0000.0,0005.10,0002.44,0001.90
2021-10-20 08:01:00,,0828.9,5.00,0.00,24.9,24.2,00.0,33.9,26.7,18.6,0000.0,0005.07,0002.44,0001.89
2021-10-20 08:02:00,,0829.0,5.00,0.00,24.8,24.1,00.0,33.9,26.7,18.6,0000.0,0005.10,0002.45,0001.89
2021-10-20 08:03:00,,0829.0,5.00,0.00,24.8,24.1,00.0,33.9,26.7,18.7,0000.0,0004.48,0002.42,0001.89
2021-10-20 08:04:00,,0829.1,5.00,0.00,24.9,24.1,00.0,33.9,26.6,18.7,0000.0,0003.80,0002.41,0001.89
2021-10-20 08:05:00,,0829.0,4.99,0.00,24.9,24.2,00.0,33.9,26.7,18.6,0000.0,0003.81,0002.42,0001.89
2021-10-20 08:06:00,,0829.0,5.00,0.00,24.9,24.2,00.0,33.9,26.7,18.6,0000.0,0003.70,0002.39,0001.87
2021-10-20 08:07:00,,0829.0,5.01,0.00,24.9,24.2,00.0,33.9,26.7,18.6,0000.0,0003.47,0002.33,0001.86
2021-10-20 08:08:00,,0829.0,5.00,0.00,24.9,24.2,00.0,33.9,26.8,18.6,0000.0,0003.24,0002.27,0001.85
2021-10-20 08:09:00,,0829.0,5.00,0.00,25.0,24.2,00.0,33.9,26.8,18.5,0000.0,0003.34,0002.30,0001.86
2021-10-20 08:10:00,,0829.0,5.00,0.00,25.0,24.2,00.0,34.0,26.8,18.5,0000.0,0003.37,0002.34,0001.87
2021-10-20 08:11:00,,0829.0,5.01,0.00,25.0,24.2,00.0,34.0,26.8,18.4,0000.0,0003.18,0002.34,0001.88
2021-10-20 08:12:00,,0829.0,4.98,0.00,25.0,24.2,00.0,34.0,26.8,18.3,0000.0,0003.17,0002.34,0001.90
2021-10-20 08:13:00,,0829.0,5.01,0.00,25.0,24.3,00.0,34.0,26.8,18.3,0000.0,0003.15,0002.34,0001.90
2021-10-20 08:14:00,,0829.1,5.00,0.00,25.0,24.3,00.0,34.0,26.8,18.2,0000.0,0003.56,0002.36,0001.92
2021-10-20 08:15:00,,0829.0,4.99,0.00,25.1,24.3,00.0,34.0,26.9,18.2,0000.0,0003.60,0002.37,0001.93
2021-10-20 08:16:00,,0829.1,5.01,0.00,25.1,24.3,00.0,34.0,26.9,18.2,0000.0,0003.60,0002.36,0001.95
2021-10-20 08:17:00,,0829.1,4.99,0.00,25.1,24.3,00.0,34.0,26.9,18.2,0000.0,0003.63,0002.38,0001.98
2021-10-20 08:18:00,,0829.1,5.00,0.00,25.1,24.3,00.0,34.1,26.9,18.2,0000.0,0003.66,0002.41,0002.01
2021-10-20 08:19:00,,0829.1,5.00,0.00,25.1,24.3,00.0,34.1,26.9,18.2,0000.0,0003.83,0002.46,0002.02
2021-10-20 08:20:00,,0829.2,4.99,0.00,25.1,24.3,00.0,34.1,26.9,18.2,0000.0,0003.69,0002.45,0002.02
2021-10-20 08:21:00,,0829.2,4.99,0.00,25.1,24.3,00.0,34.1,26.9,18.2,0000.0,0003.62,0002.43,0002.04
2021-10-20 08:22:00,,0829.3,5.00,0.00,25.1,24.3,00.0,34.1,26.9,18.3,0000.0,0003.66,0002.45,0002.05
2021-10-20 08:23:00,,0829.2,5.01,0.00,25.1,24.3,00.0,34.1,26.9,18.3,0000.0,0003.60,0002.42,0002.05
2021-10-20 08:24:00,,0829.2,5.01,0.00,25.1,24.3,00.0,34.1,26.9,18.3,0000.0,0003.61,0002.44,0002.07
2021-10-20 08:25:00,,0829.3,4.99,0.00,25.1,24.3,00.0,34.1,26.9,18.3,0000.0,0003.16,0002.42,0002.07
2021-10-20 08:26:00,,0829.3,4.99,0.00,25.1,24.3,00.0,34.1,26.9,18.3,0000.0,0003.12,0002.44,0002.10
2021-10-20 08:27:00,,0829.3,5.01,0.00,25.1,24.3,00.0,34.1,26.9,18.3,0000.0,0003.35,0002.47,0002.11
2021-10-20 08:28:00,,0829.2,4.99,0.00,25.1,24.2,00.0,34.1,26.9,18.3,0000.0,0003.66,0002.56,0002.13
2021-10-20 08:29:00,,0829.2,5.01,0.00,25.1,24.2,00.0,34.1,26.9,18.4,0000.0,0003.66,0002.56,0002.13
2021-10-20 08:30:00,,0829.2,4.98,0.00,25.0,24.1,00.0,34.1,26.8,18.4,0000.0,0003.60,0002.56,0002.14
2021-10-20 08:31:00,,0829.2,5.00,0.00,25.0,24.1,00.0,34.1,26.8,18.5,0000.0,0003.68,0002.60,0002.17
2021-10-20 08:32:00,,0829.2,5.00,0.00,24.9,24.1,00.0,34.1,26.7,18.6,0000.0,0003.73,0002.63,0002.20
2021-10-20 08:33:00,,0829.2,5.01,0.00,24.9,24.0,00.0,34.1,26.7,18.6,0000.0,0003.73,0002.64,0002.22
2021-10-20 08:34:00,,0829.2,5.00,0.00,24.9,24.0,00.0,34.1,26.6,18.7,0000.0,0003.79,0002.66,0002.24
2021-10-20 08:35:00,,0829.2,4.99,0.00,24.9,24.0,00.0,34.1,26.6,18.7,0000.0,0004.02,0002.68,0002.26
2021-10-20 08:36:00,,0829.3,5.00,0.00,24.8,23.9,00.0,34.0,26.6,18.7,0000.0,0004.09,0002.73,0002.29
2021-10-20 08:37:00,,0829.3,5.00,0.00,24.8,23.9,00.0,34.0,26.5,18.7,0000.0,0004.18,0002.77,0002.31
2021-10-20 08:38:00,,0829.2,5.01,0.00,24.7,23.8,00.0,34.0,26.5,18.8,0000.0,0004.09,0002.81,0002.33
2021-10-20 08:39:00,,0829.1,5.00,0.00,24.7,23.8,00.0,34.0,26.4,18.9,0000.0,0003.92,0002.80,0002.36
2021-10-20 08:40:00,,0829.2,4.99,0.00,24.6,23.7,00.0,33.9,26.4,18.9,0000.0,0004.17,0002.91,0002.41
2021-10-20 08:41:00,,0829.2,5.00,0.00,24.6,23.7,00.0,33.9,26.3,18.9,0000.0,0004.46,0002.98,0002.45
2021-10-20 08:42:00,,0829.3,5.00,0.00,24.6,23.7,00.0,33.9,26.3,19.0,0000.0,0004.60,0003.02,0002.47
2021-10-20 08:43:00,,0829.2,4.99,0.00,24.5,23.6,00.0,33.9,26.2,19.1,0000.0,0004.66,0003.04,0002.47
2021-10-20 08:44:00,,0829.2,5.01,0.00,24.4,23.5,00.0,33.8,26.1,19.1,0000.0,0004.70,0003.08,0002.49
2021-10-20 08:45:00,,0829.3,4.99,0.00,24.4,23.5,00.0,33.8,26.1,19.2,0000.0,0004.75,0003.12,0002.54
2021-10-20 08:46:00,,0829.2,5.01,0.00,24.3,23.4,00.0,33.7,26.0,19.3,0000.0,0004.62,0003.15,0002.58
2021-10-20 08:47:00,,0829.0,5.00,0.00,24.3,23.4,00.0,33.7,25.9,19.4,0000.0,0004.61,0003.16,0002.58
2021-10-20 08:48:00,,0829.0,5.01,0.00,24.2,23.3,00.0,33.7,25.9,19.4,0000.0,0004.67,0003.18,0002.61
2021-10-20 08:49:00,,0829.0,4.98,0.00,24.2,23.3,00.0,33.6,25.9,19.5,0000.0,0004.73,0003.19,0002.65
2021-10-20 08:50:00,,0829.1,5.01,0.00,24.2,23.3,00.0,33.6,25.8,19.5,0000.0,0004.91,0003.23,0002.67
2021-10-20 08:51:00,,0829.1,5.00,0.00,24.2,23.3,00.0,33.6,25.9,19.5,0000.0,0004.79,0003.20,0002.68
2021-10-20 08:52:00,,0829.1,5.00,0.00,24.2,23.3,00.0,33.5,25.9,19.5,0000.0,0004.95,0003.18,0002.71
2021-10-20 08:53:00,,0829.0,5.01,0.00,24.2,23.3,00.0,33.5,25.9,19.4,0000.0,0005.89,0003.19,0002.74
2021-10-20 08:54:00,,0829.0,5.00,0.00,24.2,23.4,00.0,33.5,26.0,19.4,0000.0,0005.93,0003.21,0002.78
2021-10-20 08:55:00,,0829.1,4.99,0.00,24.2,23.4,00.0,33.5,26.0,19.4,0000.0,0006.00,0003.23,0002.82
2021-10-20 08:56:00,,0829.2,5.00,0.00,24.2,23.4,00.0,33.5,26.0,19.4,0000.0,0006.11,0003.26,0002.83
2021-10-20 08:57:00,,0829.3,5.00,0.00,24.2,23.5,00.0,33.5,26.1,19.3,0000.0,0006.17,0003.28,0002.87
2021-10-20 08:58:00,,0829.3,5.00,0.00,24.3,23.5,00.0,33.5,26.1,19.3,0000.0,0007.13,0003.33,0002.92
2021-10-20 08:59:00,,0829.2,5.00,0.00,24.3,23.5,00.0,33.5,26.2,19.2,0000.0,0007.38,0003.37,0002.96
